Simultaneous Nadir Overpasses (SNOs) Predictions

Prediction of SNOs over PacNW region [( 10.00, 139.50) to ( 22.70, 165.60)] between AQUA and NPP Satellites:

Table of predicted SNOs over PacNW region for the next 30.0 days since TLE Epoch: 3/9/2018
Index Date (AQUA) Time (AQUA) AQUA Lat,Lon Date (NPP) Time (NPP) NPP Lat,Lon Distance(km) Time Diff (sec)
1 03/16/2018 16:00:07 22.61, 147.48 03/16/2018 16:01:26 23.24, 144.62 300.75 79
2 03/24/2018 15:10:45 22.67, 159.84 03/24/2018 15:10:45 23.24, 157.29 268.04 0
3 04/01/2018 16:00:16 22.59, 147.45 04/01/2018 16:01:33 23.21, 144.59 301.34 77




NCC Satellite Simultaneous Nadir Overpasses (SNOs) Prediction Service
